When you browse on this site, cookies collect data to enhance your experience and personalize the content and advertising you see.
Visit our Privacy Policy to learn more. By continuing to use the site, you agree to this use of cookies and data.
  • In Austria
  • List of Countries
  • For 7 days
  • Water Temperature
  • Satellite Maps
  • Weather Map
  • News
  • Weather Widgets
  • user-avatar
    Login

    Hourly Weather Riobamba

    Today, 25 April, Thursday

    Time Temperature Precipitation Wind Pressure Humidity
    00:00 +13°C° 0.6 mm 1 mps 542 mmHg 87%
    01:00 +13°C° 0 mm 2 mps 542 mmHg 85%
    02:00 +12°C° 0.1 mm 1 mps 542 mmHg 86%
    03:00 +12°C° 0.1 mm 1 mps 541 mmHg 86%
    04:00 +12°C° 0.1 mm 1 mps 541 mmHg 86%
    05:00 +12°C° 0.3 mm 2 mps 541 mmHg 86%
    06:00 +12°C° 0.3 mm 2 mps 541 mmHg 85%
    07:00 +13°C° 0 mm 2 mps 542 mmHg 83%
    08:00 +14°C° 0.2 mm 2 mps 543 mmHg 80%
    09:00 +14°C° 0.2 mm 3 mps 544 mmHg 78%
    10:00 +16°C° 0.2 mm 3 mps 544 mmHg 75%
    11:00 +17°C° 0.2 mm 3 mps 544 mmHg 72%
    12:00 +17°C° 0.2 mm 4 mps 544 mmHg 69%
    13:00 +18°C° 0.2 mm 4 mps 544 mmHg 65%
    14:00 +18°C° 0.2 mm 4 mps 544 mmHg 65%
    15:00 +18°C° 0.2 mm 3 mps 544 mmHg 65%
    16:00 +18°C° 0.2 mm 3 mps 543 mmHg 66%
    17:00 +16°C° 0.1 mm 3 mps 543 mmHg 72%
    18:00 +15°C° 0.1 mm 2 mps 542 mmHg 79%
    19:00 +14°C° 0.1 mm 1 mps 542 mmHg 86%
    20:00 +13°C° 0.1 mm 1 mps 542 mmHg 85%
    21:00 +13°C° 0.1 mm 1 mps 542 mmHg 85%
    22:00 +13°C° 0.1 mm 1 mps 542 mmHg 84%
    23:00 +13°C° 0.1 mm 2 mps 542 mmHg 84%

    Tomorrow, 26 April, Friday

    Time Temperature Precipitation Wind Pressure Humidity
    00:00 +12°C° 0.1 mm 2 mps 542 mmHg 85%
    01:00 +12°C° 0.1 mm 2 mps 542 mmHg 85%
    02:00 +12°C° 0.2 mm 2 mps 542 mmHg 86%
    03:00 +12°C° 0.2 mm 2 mps 541 mmHg 87%
    04:00 +12°C° 0.2 mm 2 mps 541 mmHg 88%
    05:00 +13°C° 0.1 mm 2 mps 542 mmHg 87%
    06:00 +13°C° 0.1 mm 2 mps 542 mmHg 87%
    07:00 +13°C° 0.1 mm 2 mps 542 mmHg 87%
    08:00 +13°C° 0.1 mm 3 mps 543 mmHg 81%
    09:00 +14°C° 0.1 mm 3 mps 544 mmHg 76%
    10:00 +17°C° 0.1 mm 3 mps 545 mmHg 71%
    11:00 +17°C° 0.1 mm 3 mps 545 mmHg 68%
    12:00 +18°C° 0.1 mm 3 mps 545 mmHg 65%
    13:00 +19°C° 0.1 mm 3 mps 545 mmHg 62%
    14:00 +18°C° 0.1 mm 3 mps 544 mmHg 63%
    15:00 +18°C° 0.1 mm 3 mps 543 mmHg 63%
    16:00 +18°C° 0.1 mm 2 mps 543 mmHg 64%
    17:00 +17°C° 0.2 mm 2 mps 543 mmHg 71%
    18:00 +16°C° 0.2 mm 2 mps 542 mmHg 78%
    19:00 +14°C° 0.2 mm 1 mps 542 mmHg 84%
    20:00 +14°C° 0.2 mm 1 mps 542 mmHg 85%
    21:00 +14°C° 0.2 mm 1 mps 543 mmHg 86%
    22:00 +14°C° 0.2 mm 1 mps 543 mmHg 86%
    23:00 +14°C° 0.2 mm 1 mps 543 mmHg 85%

    Day after tomorrow, 27 April, Saturday

    Time Temperature Precipitation Wind Pressure Humidity
    00:00 +13°C° 0.2 mm 1 mps 542 mmHg 84%
    01:00 +13°C° 0.2 mm 1 mps 542 mmHg 83%
    02:00 +13°C° 0.2 mm 1 mps 542 mmHg 81%
    03:00 +13°C° 0.2 mm 1 mps 541 mmHg 80%
    04:00 +12°C° 0.2 mm 1 mps 541 mmHg 79%
    05:00 +12°C° 0.4 mm 1 mps 541 mmHg 78%
    06:00 +13°C° 0.4 mm 1 mps 541 mmHg 77%
    07:00 +13°C° 0.4 mm 1 mps 542 mmHg 76%
    08:00 +13°C° 0.6 mm 2 mps 542 mmHg 76%
    09:00 +14°C° 0.6 mm 2 mps 543 mmHg 75%
    10:00 +15°C° 0.6 mm 2 mps 544 mmHg 74%
    11:00 +16°C° 0.2 mm 2 mps 544 mmHg 71%
    12:00 +17°C° 0.2 mm 2 mps 544 mmHg 68%
    13:00 +18°C° 0.2 mm 3 mps 544 mmHg 65%
    14:00 +18°C° 0.3 mm 2 mps 543 mmHg 67%
    15:00 +17°C° 0.3 mm 2 mps 543 mmHg 69%
    16:00 +17°C° 0.3 mm 2 mps 542 mmHg 71%
    17:00 +16°C° 0.9 mm 2 mps 542 mmHg 75%
    18:00 +15°C° 0.9 mm 2 mps 542 mmHg 79%
    19:00 +14°C° 0.9 mm 1 mps 541 mmHg 83%
    20:00 +14°C° 1.8 mm 1 mps 542 mmHg 84%
    21:00 +14°C° 1.8 mm 1 mps 542 mmHg 86%
    22:00 +13°C° 1.8 mm 1 mps 542 mmHg 87%
    23:00 +13°C° 1.3 mm 1 mps 542 mmHg 87%

    28 April, Sunday

    Time Temperature Precipitation Wind Pressure Humidity
    00:00 +13°C° 1.3 mm 1 mps 542 mmHg 87%
    01:00 +13°C° 1.3 mm 1 mps 541 mmHg 87%
    02:00 +13°C° 0.7 mm 1 mps 541 mmHg 87%
    03:00 +13°C° 0.7 mm 1 mps 541 mmHg 87%
    04:00 +13°C° 0.7 mm 1 mps 541 mmHg 88%
    05:00 +13°C° 1 mm 1 mps 541 mmHg 88%
    06:00 +13°C° 1 mm 2 mps 541 mmHg 88%
    07:00 +13°C° 1 mm 2 mps 541 mmHg 88%
    08:00 +13°C° 1.3 mm 2 mps 542 mmHg 86%
    09:00 +13°C° 1.3 mm 2 mps 542 mmHg 85%
    10:00 +14°C° 1.3 mm 2 mps 543 mmHg 83%
    11:00 +14°C° 0.9 mm 2 mps 543 mmHg 81%
    12:00 +15°C° 0.9 mm 2 mps 543 mmHg 80%
    13:00 +16°C° 0.9 mm 2 mps 542 mmHg 78%
    14:00 +16°C° 0.6 mm 2 mps 542 mmHg 78%
    15:00 +16°C° 0.6 mm 2 mps 541 mmHg 78%
    16:00 +16°C° 0.6 mm 2 mps 541 mmHg 78%
    17:00 +15°C° 0.2 mm 2 mps 541 mmHg 80%
    18:00 +14°C° 0.2 mm 1 mps 541 mmHg 83%
    19:00 +14°C° 0.2 mm 1 mps 541 mmHg 86%
    20:00 +14°C° 0.3 mm 1 mps 541 mmHg 87%
    21:00 +14°C° 0.3 mm 1 mps 542 mmHg 88%
    22:00 +14°C° 0.3 mm 1 mps 542 mmHg 89%
    23:00 +13°C° 0.5 mm 1 mps 542 mmHg 90%

    29 April, Monday

    Time Temperature Precipitation Wind Pressure Humidity
    00:00 +13°C° 0.5 mm 1 mps 542 mmHg 91%
    01:00 +13°C° 0.5 mm 1 mps 541 mmHg 92%
    02:00 +13°C° 1 mm 1 mps 541 mmHg 92%
    03:00 +13°C° 1 mm 1 mps 541 mmHg 92%
    04:00 +13°C° 1 mm 1 mps 540 mmHg 91%
    05:00 +13°C° 1 mm 1 mps 541 mmHg 91%
    06:00 +13°C° 1 mm 1 mps 541 mmHg 91%
    07:00 +13°C° 1 mm 2 mps 541 mmHg 90%
    08:00 +13°C° 0.7 mm 2 mps 542 mmHg 88%
    09:00 +14°C° 0.7 mm 2 mps 542 mmHg 85%
    10:00 +15°C° 0.7 mm 2 mps 543 mmHg 83%
    11:00 +15°C° 0.4 mm 2 mps 543 mmHg 81%
    12:00 +16°C° 0.4 mm 2 mps 543 mmHg 79%
    13:00 +16°C° 0.4 mm 2 mps 542 mmHg 76%
    14:00 +17°C° 0.2 mm 3 mps 542 mmHg 75%
    15:00 +17°C° 0.2 mm 3 mps 542 mmHg 75%
    16:00 +17°C° 0.2 mm 3 mps 541 mmHg 74%
    17:00 +16°C° 0.2 mm 2 mps 541 mmHg 78%
    18:00 +15°C° 0.2 mm 2 mps 541 mmHg 83%
    19:00 +14°C° 0.2 mm 2 mps 541 mmHg 88%
    20:00 +14°C° 0.2 mm 2 mps 542 mmHg 89%
    21:00 +14°C° 0.2 mm 2 mps 542 mmHg 89%
    22:00 +14°C° 0.2 mm 2 mps 542 mmHg 90%
    23:00 +14°C° 0.2 mm 2 mps 542 mmHg 91%

    30 April, Tuesday

    Time Temperature Precipitation Wind Pressure Humidity
    00:00 +13°C° 0.2 mm 2 mps 542 mmHg 91%
    01:00 +13°C° 0.2 mm 2 mps 541 mmHg 92%
    02:00 +13°C° 0.2 mm 2 mps 541 mmHg 92%
    03:00 +13°C° 0.2 mm 2 mps 541 mmHg 91%
    04:00 +13°C° 0.2 mm 2 mps 541 mmHg 91%
    05:00 +13°C° 0.1 mm 2 mps 541 mmHg 90%
    06:00 +13°C° 0.1 mm 2 mps 541 mmHg 90%
    07:00 +13°C° 0.1 mm 2 mps 542 mmHg 89%
    08:00 +14°C° 0.1 mm 3 mps 543 mmHg 83%
    09:00 +16°C° 0.1 mm 3 mps 543 mmHg 78%
    10:00 +17°C° 0.1 mm 4 mps 544 mmHg 72%
    11:00 +18°C° 0.1 mm 4 mps 544 mmHg 69%
    12:00 +18°C° 0.1 mm 4 mps 544 mmHg 66%
    13:00 +19°C° 0.1 mm 4 mps 544 mmHg 62%
    14:00 +19°C° 0.1 mm 4 mps 543 mmHg 64%
    15:00 +18°C° 0.1 mm 4 mps 543 mmHg 65%
    16:00 +18°C° 0.1 mm 3 mps 542 mmHg 66%
    17:00 +17°C° 0.1 mm 3 mps 542 mmHg 72%
    18:00 +16°C° 0.1 mm 2 mps 542 mmHg 78%
    19:00 +15°C° 0.1 mm 2 mps 542 mmHg 84%
    20:00 +15°C° 0.2 mm 2 mps 542 mmHg 84%
    21:00 +15°C° 0.2 mm 2 mps 543 mmHg 85%
    22:00 +15°C° 0.2 mm 2 mps 543 mmHg 85%
    23:00 +14°C° 0.1 mm 2 mps 543 mmHg 87%
    Show more